CALSPHERE 2

Last updated on Sat Sep 12 2026 00:03:45 GMT+0000 (Coordinated Universal Time)

1 00902U 64063E 26254.48918372 .00000040 00000+0 47185-4 0 9993 2 00902 90.2288 77.8256 0017951 342.8494 76.7585 13.52906203867936
UTC large
Height (km)
Speed (km/s)
/
Latitude / Longitude
Inclination (degrees)
Orbital Period (minutes)
Azimuth
Elevation
Range (km)
Doppler Factor

Next 0 passes for location: London (51.5072 / 0.1276)

No passes found over London.
CALSPHERE 2